Powrót do katalogu

STARLINK-37884

AktywnyŁącznośćSSO
NORAD 69655·PAYLOAD·🇺🇸 United States

Wystrzelony Jun 21, 2026 z Vandenberg Space Force Base

Loading…

Następne Przeloty (najbliższe 24 godziny)

TLE

ŚwieżeSource: CelesTrak SupGP

Epoka: Sep 14, 2026, 22:50 UTC

1 69655C 26143G   26257.95187500  .00023458  00000+0  72827-3 0  2571
2 69655  97.2842 301.1522 0001343  93.1596  54.7245 15.33424093    15

Śledź STARLINK-37884 w czasie rzeczywistym z AllMySat

Download on the App Store